THORAD AGENA D DEB, 4717

Orbit data source: Space-Track

THORAD AGENA D DEB, 4717 is space debris in SSO originally from a launch on Wed, 08 Apr 1970 UTC launched from the Air Force Western Test Range (AFWTR). Debris objects in space refer to the collection of defunct objects orbiting the Earth. Examples of debris include non-operational satellites, rocket bodies, and fragments generated from explosions, collisions, or faulty payload assembly.

Loading next visibility...
Identifier
4717, 1970-025CB
Orbit
SSO
Country
Flag of USUS
Related business
Manufacturer
Unknown
Mission
Spacecraft
Bus & Motor
Unknown
Mass
Unknown
Launch date (UTC)
1970-04-08 (56 years ago)
Launch vehicle
Unknown
Launch site
Air Force Western Test Range (AFWTR)
Object type
Payload
Rocket body
Debris
Shape & HBR
Unknown shape, 0.1 m
Radar Cross Section
Small (<0.1 m²)

Expand to show TLE details & history
Last TLE update: 7 hours ago

TLE from 7 hours ago
0 THORAD AGENA D DEB
1  4717U 70025CB  25300.43058500  .00000115  00000-0  23546-3 0  9998
2  4717 100.0359   6.9776 0003478  97.2533 281.7445 13.54855837741894
Epoch: 2025-10-27T10:20Z
TLE epoch observation values (Epoch: 2025-10-27T10:20:02.544Z)
Latitude
18.65502°
Longitude
172.52681°
Altitude
1,056.195 km
Speed
7.326 km/s
True Right ascension
00h 14m 16s
True Declination
18° 33' 19"
Sunlit
Object was in full shadow at epoch
Visualization orbit readout
Latitude
Unknown
Longitude
Unknown
Altitude
Unknown
Speed
Unknown
Apparent Right ascension
Unknown
Apparent Declination
Unknown
Sunlit
N/A
Visualization observer readout
Local Sidereal Time
12:21:58
Azimuth
Unknown
Elevation
Unknown
Doppler factor
Unknown
Orbital elements
Apogee altitude
1,054.343 km
Perigee altitude
1,049.175 km
Semi-major axis
7,429.896 km
Eccentricity
0.00035
Inclination
100.0359°
RAAN
6.9776°
Arg. of periapsis
97.2533°
True anomaly
281.70548°
Mean anomaly
281.7445°
Eccentric anomaly
281.72499°
Mean motion
3.38898 °/min
Orbital period
106.23 mins
BSTAR
0.00023546
Loading maneuver chart data...
Computing Atmospheric mass density...

Documentation

Showing up to 5 results
|